GW7168 Weather Reports


time (UTC)temp
C
wind
direction
speed
KPH
gust
KPH
rain 1hr
cm
rain 24hr
cm
rain mn
cm
humidity
%
barometer
mb
20260506092013 10 256 0.0 0.0 0.00 0.00 0.00 92 1017.2
20260506091521 10 256 0.0 0.0 0.00 0.00 0.00 92 1017.3
20260506091011 10 256 0.0 0.0 0.00 0.00 0.00 92 1017.3
20260506090508 10 256 0.0 0.0 0.00 0.00 0.00 92 1017.2
20260506090020 10 256 0.0 0.0 0.00 0.00 0.00 92 1017.3
20260506085508 10 256 0.0 3.2 0.00 0.00 0.00 92 1017.2
20260506085008 10 256 0.0 3.2 0.00 0.00 0.00 92 1017.2
20260506084528 10 256 0.0 0.0 0.00 0.00 0.00 92 1017.2
20260506084009 10 256 0.0 1.6 0.00 0.00 0.00 92 1017.1
20260506083510 10 256 0.0 1.6 0.00 0.00 0.00 92 1017.0
20260506083025 10 256 0.0 1.6 0.00 0.00 0.00 92 1016.9
20260506082506 10 225 0.0 0.0 0.00 0.00 0.00 91 1016.8
20260506082009 10 225 0.0 0.0 0.00 0.00 0.00 90 1016.8
20260506081533 10 225 0.0 0.0 0.00 0.00 0.00 90 1016.8
20260506081006 10 225 0.0 0.0 0.00 0.00 0.00 90 1016.8
20260506080506 10 225 0.0 0.0 0.00 0.00 0.00 90 1016.7
20260506073508 10 225 0.0 4.8 0.00 0.00 0.00 90 1016.6
20260506073029 10 225 0.0 4.8 0.00 0.00 0.00 90 1016.5
20260506072504 10 282 0.0 3.2 0.00 0.00 0.00 90 1016.5
20260506072008 10 282 0.0 3.2 0.00 0.00 0.00 89 1016.4
20260506071518 10 282 0.0 1.6 0.00 0.00 0.00 89 1016.4
20260506071010 10 265 0.0 3.2 0.00 0.00 0.00 89 1016.2
20260506070506 10 265 0.0 3.2 0.00 0.00 0.00 89 1016.2
20260506062508 11 205 0.0 6.4 0.00 0.00 0.00 87 1016.0
20260506062008 11 325 0.0 6.4 0.00 0.00 0.00 87 1016.0
20260506061508 11 209 0.0 3.2 0.00 0.00 0.00 87 1016.0
20260506061008 11 5 0.0 3.2 0.00 0.00 0.00 87 1015.9
20260506060508 11 320 0.0 3.2 0.00 0.00 0.00 87 1015.9
20260506051005 12 186 0.0 4.8 0.00 0.00 0.00 83 1015.8
20260506050506 12 188 0.0 4.8 0.00 0.00 0.00 83 1015.8
20260506045008 12 344 1.6 6.4 0.00 0.00 0.00 83 1015.7
20260506044549 12 318 0.0 6.4 0.00 0.00 0.00 82 1015.7
20260506044004 12 261 0.0 3.2 0.00 0.00 0.00 82 1015.7
20260506043509 12 261 0.0 3.2 0.00 0.00 0.00 81 1015.6
20260506043024 12 169 1.6 8.0 0.00 0.00 0.00 81 1015.5
20260506042504 12 186 0.0 6.4 0.00 0.00 0.00 81 1015.4
20260506042016 12 337 0.0 4.8 0.00 0.00 0.00 80 1015.4
20260506041524 13 197 1.6 4.8 0.00 0.00 0.00 80 1015.4
20260506041017 13 206 1.6 4.8 0.00 0.00 0.00 79 1015.4
20260506040508 13 218 0.0 3.2 0.00 0.00 0.00 79 1015.3
20260506040025 13 167 0.0 3.2 0.00 0.00 0.00 78 1015.2
20260506035506 13 332 0.0 6.4 0.00 0.00 0.00 78 1015.1
20260506035005 13 333 0.0 8.0 0.00 0.00 0.00 77 1015.1
20260506034543 13 312 3.2 8.0 0.00 0.00 0.00 76 1015.0
20260506034012 14 115 1.6 4.8 0.00 0.00 0.00 76 1014.9
20260506033511 14 68 0.0 6.4 0.00 0.00 0.00 77 1014.8
20260506033017 14 200 0.0 6.4 0.00 0.00 0.00 75 1014.7
20260506032511 15 124 1.6 3.2 0.00 0.00 0.00 74 1014.7
20260506032012 15 27 0.0 3.2 0.00 0.00 0.00 74 1014.6
20260506031527 15 130 0.0 4.8 0.00 0.00 0.00 73 1014.5
20260506031008 16 147 0.0 4.8 0.00 0.00 0.00 71 1014.5
20260506030509 16 246 1.6 4.8 0.00 0.00 0.00 70 1014.4
20260506030026 16 330 0.0 4.8 0.00 0.00 0.00 69 1014.3
20260506025506 17 247 1.6 4.8 0.00 0.00 0.00 69 1014.3
20260506025010 17 222 0.0 6.4 0.00 0.00 0.00 68 1014.1
20260506024521 17 263 1.6 6.4 0.00 0.00 0.00 67 1014.0
20260506024010 17 17 0.0 3.2 0.00 0.00 0.00 67 1013.9
20260506023509 17 165 1.6 3.2 0.00 0.00 0.00 66 1013.9
20260506023023 18 103 1.6 3.2 0.00 0.00 0.00 64 1013.9
20260506022507 18 28 0.0 3.2 0.00 0.00 0.00 65 1013.8
20260506022007 18 298 0.0 6.4 0.00 0.00 0.00 65 1013.9
20260506021522 18 155 0.0 6.4 0.00 0.00 0.00 65 1013.9
20260506021008 18 114 0.0 6.4 0.00 0.00 0.00 63 1013.8
20260506020508 18 323 1.6 4.8 0.00 0.00 0.00 63 1013.7
20260506020016 19 107 1.6 4.8 0.00 0.00 0.00 62 1013.7
20260506015508 20 94 0.0 3.2 0.00 0.00 0.00 60 1013.8
20260506015012 20 5 1.6 3.2 0.00 0.00 0.00 60 1013.7
20260506014528 20 237 1.6 4.8 0.00 0.00 0.00 60 1013.7
20260506014008 20 287 1.6 6.4 0.00 0.00 0.00 60 1013.6
20260506013505 20 336 1.6 6.4 0.00 0.00 0.00 58 1013.6
20260506013013 20 5 1.6 6.4 0.00 0.00 0.00 58 1013.6
20260506012502 21 69 0.0 6.4 0.00 0.00 0.00 58 1013.7
20260506012003 21 200 1.6 6.4 0.00 0.00 0.00 57 1013.8
20260506011510 21 43 1.6 8.0 0.00 0.00 0.00 57 1013.7
20260506011003 21 176 0.0 8.0 0.00 0.00 0.00 58 1013.7
20260506010502 21 96 0.0 4.8 0.00 0.00 0.00 57 1013.8
20260506010006 21 338 0.0 4.8 0.00 0.00 0.00 56 1013.7
20260506005504 21 101 1.6 9.7 0.00 0.00 0.00 56 1013.8
20260506005001 21 346 0.0 9.7 0.00 0.00 0.00 59 1013.8
20260506004505 21 328 3.2 6.4 0.00 0.00 0.00 56 1013.8
20260506004005 21 24 1.6 6.4 0.00 0.00 0.00 55 1013.9
20260506003509 22 360 0.0 6.4 0.00 0.00 0.00 55 1013.9
20260506003004 22 105 0.0 3.2 0.00 0.00 0.00 56 1013.9
20260506002508 22 275 0.0 3.2 0.00 0.00 0.00 56 1013.9
20260506002006 22 17 1.6 3.2 0.00 0.00 0.00 56 1013.9
20260506001501 22 11 1.6 3.2 0.00 0.00 0.00 55 1013.9
20260506001004 22 121 1.6 6.4 0.00 0.00 0.00 55 1013.9
20260506000508 22 79 1.6 4.8 0.00 0.00 0.00 55 1013.9
20260506000016 22 323 1.6 4.8 0.00 0.00 0.00 54 1013.9
20260505235504 22 83 1.6 4.8 0.00 0.00 0.00 56 1013.9
20260505235005 22 112 1.6 4.8 0.00 0.00 0.00 54 1013.9
20260505234522 22 105 1.6 4.8 0.00 0.00 0.00 55 1014.0
20260505234001 22 352 1.6 9.7 0.00 0.00 0.00 54 1014.0
20260505233500 22 159 3.2 9.7 0.00 0.00 0.00 54 1014.0
20260505233011 22 65 1.6 8.0 0.00 0.00 0.00 56 1013.9
20260505232508 22 263 1.6 6.4 0.00 0.00 0.00 53 1013.9
20260505232001 22 56 1.6 6.4 0.00 0.00 0.00 54 1013.9
20260505231510 22 303 0.0 6.4 0.00 0.00 0.00 55 1013.9
20260505231004 22 240 1.6 8.0 0.00 0.00 0.00 57 1013.9
20260505230507 22 57 3.2 8.0 0.00 0.00 0.00 54 1013.9
20260505230007 22 188 1.6 8.0 0.00 0.00 0.00 55 1013.9
20260505225504 22 277 3.2 8.0 0.00 0.00 0.00 53 1013.8
20260505225009 22 200 1.6 4.8 0.00 0.00 0.00 54 1013.9
20260505224504 22 240 1.6 8.0 0.00 0.00 0.00 55 1014.0
20260505224003 22 328 1.6 8.0 0.00 0.00 0.00 55 1014.1
20260505223507 22 194 1.6 6.4 0.00 0.00 0.00 56 1014.1
20260505223019 22 352 1.6 6.4 0.00 0.00 0.00 56 1014.2
20260505222503 22 295 1.6 6.4 0.00 0.00 0.00 57 1014.2
20260505222006 22 339 1.6 9.7 0.00 0.00 0.00 58 1014.2
20260505221519 22 42 3.2 9.7 0.00 0.00 0.00 55 1014.2
20260505221002 22 208 3.2 9.7 0.00 0.00 0.00 54 1014.2
20260505220504 22 133 0.0 8.0 0.00 0.00 0.00 56 1014.3
20260505220023 22 346 1.6 8.0 0.00 0.00 0.00 56 1014.3
20260505215508 22 264 1.6 8.0 0.00 0.00 0.00 55 1014.4
20260505215004 22 232 3.2 6.4 0.00 0.00 0.00 56 1014.4
20260505214512 22 199 1.6 11.3 0.00 0.00 0.00 57 1014.4
20260505214007 22 171 3.2 11.3 0.00 0.00 0.00 57 1014.4
20260505213511 22 95 3.2 9.7 0.00 0.00 0.00 57 1014.6
20260505213007 22 273 1.6 8.0 0.00 0.00 0.00 57 1014.6
20260505212510 22 21 1.6 8.0 0.00 0.00 0.00 57 1014.6
20260505212015 22 99 3.2 6.4 0.00 0.00 0.00 57 1014.5
20260505211506 21 138 1.6 6.4 0.00 0.00 0.00 59 1014.5
20260505211006 21 313 1.6 14.5 0.00 0.00 0.00 60 1014.6
20260505210505 21 221 6.4 14.5 0.00 0.00 0.00 58 1014.6
20260505210023 21 157 3.2 11.3 0.00 0.00 0.00 58 1014.6
20260505205508 21 181 3.2 11.3 0.00 0.00 0.00 57 1014.6
20260505205007 21 180 4.8 11.3 0.00 0.00 0.00 58 1014.6
20260505204522 21 211 3.2 6.4 0.00 0.00 0.00 58 1014.6
20260505204003 21 307 1.6 6.4 0.00 0.00 0.00 60 1014.7
20260505203504 21 292 3.2 8.0 0.00 0.00 0.00 60 1014.7
20260505203015 21 190 3.2 8.0 0.00 0.00 0.00 60 1014.8
20260505202510 20 194 1.6 6.4 0.00 0.00 0.00 62 1014.8
20260505202007 20 193 1.6 9.7 0.00 0.00 0.00 63 1014.9
20260505201513 20 320 3.2 9.7 0.00 0.00 0.00 64 1014.9
20260505201008 19 309 4.8 9.7 0.00 0.00 0.00 66 1014.9
20260505200508 19 122 4.8 8.0 0.00 0.00 0.00 65 1014.9
20260505200010 18 176 1.6 6.4 0.00 0.00 0.00 67 1015.0
20260505195504 18 272 3.2 6.4 0.00 0.00 0.00 67 1015.0
20260505195009 18 273 1.6 6.4 0.00 0.00 0.00 68 1015.0
20260505194515 18 323 1.6 6.4 0.00 0.00 0.00 69 1015.0
20260505194007 18 189 1.6 6.4 0.00 0.00 0.00 70 1015.1
20260505193507 17 196 3.2 6.4 0.00 0.00 0.00 71 1015.1
20260505193037 17 360 3.2 6.4 0.00 0.00 0.00 72 1015.2
20260505192507 17 280 0.0 6.4 0.00 0.00 0.00 72 1015.2
20260505192007 17 193 1.6 6.4 0.00 0.00 0.00 73 1015.2
20260505191532 17 352 1.6 6.4 0.00 0.00 0.00 73 1015.2
20260505191013 17 246 1.6 6.4 0.00 0.00 0.00 74 1015.2
20260505190505 16 252 0.0 6.4 0.00 0.00 0.00 75 1015.3
20260505190018 16 275 1.6 6.4 0.00 0.00 0.00 76 1015.3
20260505185509 16 352 3.2 6.4 0.00 0.00 0.00 77 1015.3
20260505185004 16 281 1.6 6.4 0.00 0.00 0.00 77 1015.3
20260505184516 15 179 3.2 11.3 0.00 0.00 0.00 77 1015.4
20260505184012 15 281 4.8 11.3 0.00 0.00 0.00 78 1015.4
20260505183511 15 279 1.6 6.4 0.00 0.00 0.00 78 1015.5
20260505183014 15 275 0.0 8.0 0.00 0.00 0.00 79 1015.4
20260505182510 15 5 3.2 8.0 0.00 0.00 0.00 79 1015.4
20260505182011 15 345 4.8 6.4 0.00 0.00 0.00 79 1015.4
20260505181509 15 292 0.0 4.8 0.00 0.00 0.00 80 1015.4
20260505181008 14 264 1.6 6.4 0.00 0.00 0.00 81 1015.4
20260505180508 14 140 0.0 6.4 0.00 0.00 0.00 81 1015.4
20260505180037 14 306 4.8 6.4 0.00 0.00 0.00 81 1015.4
20260505175504 13 5 1.6 8.0 0.00 0.00 0.00 82 1015.4
20260505175005 13 304 3.2 8.0 0.00 0.00 0.00 82 1015.4
20260505174532 13 9 1.6 6.4 0.00 0.00 0.00 82 1015.4
20260505174012 13 186 1.6 8.0 0.00 0.00 0.00 83 1015.4
20260505173507 13 269 3.2 8.0 0.00 0.00 0.00 84 1015.5
20260505173021 13 280 0.0 6.4 0.00 0.00 0.00 84 1015.5
20260505172511 13 310 1.6 6.4 0.00 0.00 0.00 84 1015.5
20260505172010 13 335 3.2 6.4 0.00 0.00 0.00 85 1015.5
20260505171520 13 334 3.2 6.4 0.00 0.00 0.00 85 1015.5
20260505171010 12 342 1.6 6.4 0.00 0.00 0.00 86 1015.5
20260505170509 12 348 3.2 6.4 0.00 0.00 0.00 86 1015.5
20260505170024 12 276 1.6 6.4 0.00 0.00 0.00 86 1015.4
20260505165507 12 311 3.2 4.8 0.00 0.00 0.00 87 1015.5
20260505165009 12 344 1.6 4.8 0.00 0.00 0.00 86 1015.6
20260505164527 12 273 1.6 4.8 0.00 0.00 0.00 87 1015.7
20260505164010 12 331 3.2 4.8 0.00 0.00 0.00 87 1015.7
20260505163503 12 310 0.0 3.2 0.00 0.00 0.00 88 1015.7
20260505163010 12 290 0.0 8.0 0.00 0.00 0.00 88 1015.8
20260505162507 12 338 1.6 8.0 0.00 0.00 0.00 87 1015.7
20260505162004 12 205 0.0 3.2 0.00 0.00 0.00 88 1015.7
20260505161511 12 218 0.0 3.2 0.00 0.00 0.00 87 1015.6
20260505161005 12 328 0.0 3.2 0.00 0.00 0.00 88 1015.7
20260505160508 12 344 0.0 3.2 0.00 0.00 0.00 89 1015.6
20260505153029 11 224 0.0 3.2 0.00 0.00 0.00 89 1015.4
20260505152504 11 296 0.0 3.2 0.00 0.00 0.00 89 1015.3
20260505152006 11 238 0.0 3.2 0.00 0.00 0.00 89 1015.3
20260505151517 11 238 0.0 3.2 0.00 0.00 0.00 89 1015.3
20260505151001 11 220 0.0 3.2 0.00 0.00 0.00 90 1015.3
20260505150505 11 220 0.0 3.2 0.00 0.00 0.00 90 1015.2
20260505140510 11 217 0.0 3.2 0.00 0.00 0.00 93 1014.7
20260505125007 10 311 0.0 0.0 0.00 0.00 0.00 95 1013.9
20260505124513 10 311 0.0 0.0 0.00 0.00 0.00 95 1013.8
20260505124006 10 311 0.0 0.0 0.00 0.00 0.00 95 1013.8
20260505123511 10 311 0.0 0.0 0.00 0.00 0.00 95 1013.8
20260505123035 9 311 0.0 0.0 0.00 0.00 0.00 95 1013.8
20260505122508 9 311 0.0 1.6 0.00 0.00 0.00 95 1013.8
20260505122008 9 311 0.0 3.2 0.00 0.00 0.00 94 1013.8
20260505121522 9 311 0.0 3.2 0.00 0.00 0.00 94 1013.8
20260505121010 9 311 0.0 3.2 0.00 0.00 0.00 94 1013.8
20260505120508 10 311 0.0 3.2 0.00 0.00 0.00 94 1013.7
20260505120027 10 311 0.0 3.2 0.00 0.00 0.00 94 1013.7
20260505115510 10 311 0.0 3.2 0.00 0.00 0.00 94 1013.7
20260505115006 10 311 0.0 3.2 0.00 0.00 0.00 94 1013.6
20260505114520 10 311 0.0 3.2 0.00 0.00 0.00 94 1013.6
20260505114013 10 311 0.0 0.0 0.00 0.00 0.00 93 1013.5
20260505113512 10 311 0.0 1.6 0.00 0.00 0.00 94 1013.4
20260505113018 10 311 0.0 3.2 0.00 0.00 0.00 94 1013.4
20260505112509 10 311 0.0 3.2 0.00 0.00 0.00 94 1013.3
20260505112013 10 311 0.0 3.2 0.00 0.00 0.00 94 1013.2
20260505111545 10 192 0.0 3.2 0.00 0.00 0.00 94 1013.2
20260505111007 10 281 0.0 3.2 0.00 0.00 0.00 93 1013.2
20260505110508 10 281 0.0 3.2 0.00 0.00 0.00 93 1013.2
20260505102009 10 304 0.0 3.2 0.00 0.00 0.00 92 1013.0
20260505101528 10 208 0.0 3.2 0.00 0.00 0.00 92 1013.0
20260505101007 10 274 0.0 3.2 0.00 0.00 0.00 92 1013.0
20260505100507 10 268 0.0 3.2 0.00 0.00 0.00 92 1013.0
20260505100021 10 283 0.0 3.2 0.00 0.00 0.00 92 1013.0
20260505095501 10 302 0.0 3.2 0.00 0.00 0.00 91 1012.9
20260505095003 10 301 0.0 3.2 0.00 0.00 0.00 91 1012.9
20260505094516 10 273 0.0 3.2 0.00 0.00 0.00 91 1012.8
20260505094008 10 350 0.0 3.2 0.00 0.00 0.00 91 1012.8
20260505093507 10 254 0.0 3.2 0.00 0.00 0.00 91 1012.7
20260505093012 11 247 0.0 3.2 0.00 0.00 0.00 91 1012.7
20260505092510 11 273 0.0 3.2 0.00 0.00 0.00 91 1012.7